Regional Weather Roundup
Issued by NWS New Orleans/Baton Rouge, LA

Home | Current Version | Previous Version | Text Only | Print | Product List | Glossary On
Versions: 1 2 3 4 5 6 7 8 9 10 11 12 13 14 15 16 17 18 19 20 21 22 23 24 25 26 27 28 29 30 31 32 33 34 35 36 37 38 39 40 41 42 43 44 45 46 47 48 49 50
524
ASUS44 KLIX 241110
RWRLIX
NEW ORLEANS REGIONAL WEATHER ROUNDUP
NATIONAL WEATHER SERVICE NEW ORLEANS LA
600 AM CDT THU APR 24 2014

NOTE: "FAIR" INDICATES FEW OR NO CLOUDS BELOW 12,000 FEET WITH NO
      SIGNIFICANT WEATHER AND/OR OBSTRUCTIONS TO VISIBILITY.
      SKY/WX - SKY CONDITION AND SIGNIFICANT WEATHER.
      TMP - AIR TEMPERATURE.     DP    - DEWPOINT TEMPERATURE.
      RH  - RELATIVE HUMIDITY.   PRES  - PRESSURE.
      HI  - HEAT INDEX.          WCI   - WIND CHILL INDEX.

*  THESE STATIONS ARE NOT NWS OR FAA STATIONS AND ARE NOT UNDER
   NWS QUALITY CONTROL.

LAZ038-040-048-061>063-065>067-069-241200-
SOUTHEAST LOUISIANA

CITY           SKY/WX    TMP DP  RH WIND       PRES   REMARKS
N.O. AUDUBON     N/A     66  64  94 MISG        N/A
N.O. INTL ARPT CLEAR     64  63  96 CALM      29.91S
N.O. LAKEFRONT CLEAR     65  63  93 SE5       29.92S FOG
N.O. DOWNTOWN*   N/A     68  63  83 S3        29.92S
SLIDELL        FOG       56  55  97 CALM      29.92R VSB 1/4
BATON ROUGE    CLEAR     62  59  90 E3        29.90R FOG
BOOTHVILLE     PTCLDY    69  65  86 S5        29.93R
BELLE CHASSE   FOG       57  55  94 CALM      29.92R VSB 1/4
BOGALUSA*      FOG       57  55  91 CALM      29.93S VSB 1/2
GALLIANO*      FOG       59  57  93 CALM      29.92R VSB 1/4
NEW ROADS*     FOG       60  59  97 CALM      29.90R VSB<1/4
GONZALES*      FOG       59  59 100 CALM      29.90R VSB 3/4
HAMMOND*       FOG       61  57  88 CALM      29.93R VSB 1
HOUMA*         FOG       61  59  94 CALM      29.91R VSB<1/4
PORT FOURCHON* SUNNY     70  66  88 S5        29.93R

$$

MSZ070-080>082-241200-
SOUTHERN MISSISSIPPI

CITY           SKY/WX    TMP DP  RH WIND       PRES   REMARKS
MCCOMB         PTCLDY    56  55  97 CALM      29.91S FOG
GULFPORT         N/A     63  59  87 CALM      29.92R
BILOXI         CLEAR     64  64 100 CALM      29.93R FOG
PASCAGOULA     FOG       59  59 100 CALM      29.94R VSB 1/4

$$

COASTAL OBSERVATIONS
LAKE AND NEARSHORE STATIONS

STATION/POSITION TIME  TEMP    WIND        PRES    WAVE
                       AIR SEA DIR/SP/G            HT/PER
                 (UTC) (F)     (DEG/KT/KT) (MB)    (FT/S)
PASCAGOULA       1100   66     340/  1/  2 1013.0
WAVELAND YACHT   1100   66 74     CALM     1012.5
GRAND ISLE       1100   69 72  210/  3/  4 1013.6
SOUTHWEST PASS   1100   67 60  190/  6/  6 1013.7
NEW CANAL        1100   66 70  160/  2/  3 1013.4
SHELL BEACH      1100   68 68  150/  3/  3 1013.0

OFFSHORE STATIONS

STATION/POSITION TIME  TEMP    WIND        PRES    WAVE
                       AIR SEA DIR/SP/G            HT/PER
                 (UTC) (F)     (DEG/KT/KT) (MB)    (FT/S)
64 S DAUPHIN ISL 0952   69 71  230/  6/  6 1014.1

$$




USA.gov is the U.S. government's official web portal to all federal, state and local government web resources and services.